This is the latest recevied weather packets stored in our database for station/object XE2MEM-21. If no packets are shown the sender has not sent any weather packets the latest 10 day(s).
| Time | Temp. | Humidity | Pressure | Rain* | Wind** | Luminosity | Snow |
|---|---|---|---|---|---|---|---|
| 1777722150 | 17.22° C | 100% | 1014.5 hPa | - | - | - | - |
| 1777721250 | 17.22° C | 100% | 1014.2 hPa | - | - | - | - |
| 1777720350 | 17.22° C | 100% | 1014.1 hPa | - | - | - | - |
| 1777719450 | 17.22° C | 100% | 1013.6 hPa | - | - | - | - |
| 1777718550 | 17.78° C | 100% | 1013.4 hPa | - | - | - | - |
| 1777717650 | 17.78° C | 100% | 1013.2 hPa | - | - | - | - |
| 1777716750 | 17.78° C | 100% | 1013.1 hPa | - | - | - | - |
| 1777715850 | 18.33° C | 100% | 1013.1 hPa | - | - | - | - |
| 1777714950 | 17.78° C | 100% | 1013 hPa | - | - | - | - |
| 1777714049 | 18.33° C | 100% | 1012.8 hPa | - | - | - | - |
| 1777713149 | 18.33° C | 100% | 1012.9 hPa | - | - | - | - |
| 1777712249 | 18.33° C | 100% | 1012.7 hPa | - | - | - | - |
| 1777711349 | 18.33° C | 100% | 1012.6 hPa | - | - | - | - |
| 1777710449 | 17.78° C | 100% | 1012.4 hPa | - | - | - | - |
| 1777709549 | 18.33° C | 100% | 1012.5 hPa | - | - | - | - |
| 1777708649 | 18.89° C | 100% | 1012.5 hPa | - | - | - | - |
| 1777707749 | 18.33° C | 100% | 1012.5 hPa | - | - | - | - |
| 1777706849 | 18.89° C | 100% | 1012.5 hPa | - | - | - | - |
| 1777705949 | 19.44° C | 100% | 1012.3 hPa | - | - | - | - |
| 1777705049 | 18.89° C | 100% | 1012 hPa | - | - | - | - |
| 1777704149 | 19.44° C | 100% | 1011.6 hPa | - | - | - | - |
| 1777703249 | 19.44° C | 100% | 1011.3 hPa | - | - | - | - |
| 1777702349 | 19.44° C | 100% | 1011.4 hPa | - | - | - | - |
| 1777701448 | 19.44° C | 100% | 1011.3 hPa | - | - | - | - |
| 1777700548 | 20° C | 100% | 1011.5 hPa | - | - | - | - |
* Rain since midnight (hover to see other rain measurements)
** Current wind speed in m/s (hover to see current wind gust speed)